Regional Weather Roundup
Issued by NWS State College, PA

Home | Current Version | Previous Version | Text Only | Print | Product List | Glossary Off
Versions: 1 2 3 4 5 6 7 8 9 10 11 12 13 14 15 16 17 18 19 20 21 22 23 24 25 26 27 28 29 30 31 32 33 34 35 36 37 38 39 40 41 42 43 44 45 46 47 48 49 50

000
ASUS41 KCTP 250003
RWRCTP

REGIONAL WEATHER ROUNDUP
NATIONAL WEATHER SERVICE STATE COLLEGE PA
800 PM EDT THU JUL 24 2014

Note: "fair" indicates few or no clouds below 12,000 feet with no
significant weather and/or obstructions to visibility.

* = STATION THAT DOES NOT REPORT PRECIPITATION /E.G. RAIN...SNOW...ETC/
    THUNDER OR FOG.

PAZ002>004-007>009-013>016-020>023-029>032-250100-
WESTERN PENNSYLVANIA

CITY           SKY/WX    TMP DP  RH WIND       PRES   REMARKS
ERIE           CLEAR     68  46  45 N5        30.02F
MEADVILLE      CLEAR     65  46  50 NE7       30.04S
FRANKLIN*      CLEAR     64  46  52 CALM      30.04S
NEW CASTLE       N/A     67  51  56 CALM      30.03S
BEAVER COUNTY  CLEAR     68  52  56 N7        30.02R
BUTLER*        CLEAR     68  52  56 N8        30.02S
PITTSBURGH INT PTCLDY    72  51  47 N14       30.00R
PITTSBURGH     CLEAR     69  50  50 N6        29.99R
INDIANA*       CLEAR     72  54  53 CALM      30.03S
LATROBE        CLEAR     72  55  56 N6        29.91F
WASHINGTON CO* CLEAR     70  54  56 N5        30.01R
$$

PAZ004>006-010>012-017>019-024>028-033>037-041-042-045-046-049>053-250100-
CENTRAL PENNSYLVANIA

CITY           SKY/WX    TMP DP  RH WIND       PRES   REMARKS
BRADFORD       CLEAR     63  48  58 N8        30.04R
DUBOIS         CLEAR     67  51  56 N7        30.01R
CLEARFIELD     CLEAR     69  52  54 N6        29.99S
JOHNSTOWN      CLEAR     67  50  54 NW8       30.01R
ALTOONA        MOCLDY    71  54  54 N6        29.98S
STATE COLLEGE  PTCLDY    70  52  52 VRB3      29.98R
WILLIAMSPORT   PTCLDY    72  49  44 N6        29.95R
SELINSGROVE    PTCLDY    71  54  54 N5        29.95R
FT INDIANTOWN  PTCLDY    72  54  52 N5        29.94R
CAPITAL CITY   PTCLDY    75  51  43 N8        29.93R
HARRISBURG     MOCLDY    75  51  43 N7        29.92R
YORK           MOCLDY    73  55  53 N5        29.93R
$$

PAZ038>040-043-044-047-048-054-055-060>062-067>071-250100-
EASTERN PENNSYLVANIA

CITY           SKY/WX    TMP DP  RH WIND       PRES   REMARKS
SCRANTON       PTCLDY    71  50  47 NW9       29.95R
MOUNT POCONO   PTCLDY    65  50  58 NW8       29.96R
ALLENTOWN      MOCLDY    73  53  49 N10       29.91R
QUAKERTOWN*    CLOUDY    73  55  53 N7        29.92R
READING        MOCLDY    74  54  49 N8        29.92R
LANCASTER      MOCLDY    72  54  53 N9        29.92R
COATESVILLE    CLOUDY    72  55  56 N7        29.93R
POTTSTOWN      CLOUDY    73  54  51 N6        29.92R
BLUE BELL      CLOUDY    75  55  50 CALM      29.89R
DOYLESTOWN     MOCLDY    73  56  54 N3        29.89R
WILLOW GROVE   NOT AVBL
NORTH PHILA    MOCLDY    77  53  43 N9        29.89R
PHILADELPHIA   CLOUDY    79  53  40 NW15      29.89R
$$


USA.gov is the U.S. government's official web portal to all federal, state and local government web resources and services.